Regional Weather Roundup
Issued by NWS Albany, NY

Home | Current Version | Previous Version | Text Only | Print | Product List | Glossary On
Versions: 1 2 3 4 5 6 7 8 9 10 11 12 13 14 15 16 17 18 19 20 21 22 23 24 25 26 27 28 29 30 31 32 33 34 35 36 37 38 39 40 41 42 43 44 45 46 47 48 49 50
000
ASUS41 KALY 301910
RWRALY

NEW YORK STATE HOURLY WEATHER ROUNDUP
NATIONAL WEATHER SERVICE ALBANY NY
300 PM EDT TUE SEP 30 2014

NOTE: "FAIR" INDICATES FEW OR NO CLOUDS BELOW 12,000 FEET WITH NO
SIGNIFICANT WEATHER AND/OR NO OBSTRUCTIONS TO VISIBILITY.

NYZ032-033-038>043-046>054-057>066-NYZ062>081-302000-
EAST


CITY           SKY/WX    TMP DP  RH WIND       PRES   REMARKS
ALBANY         PTSUNNY   74  57  55 S7        29.93F
GLENS FALLS    PTSUNNY   70  57  63 CALM      29.94F
POUGHKEEPSIE   SUNNY     72  58  61 SE9       29.93S
MONTGOMERY     LGT RAIN  68  60  75 S7        29.92S
WHITE PLAINS   PTSUNNY   65  58  78 E7        29.96F
ISLIP          CLOUDY    65  58  78 NE8       29.95S
NEW YORK CITY  CLOUDY    66  59  78 E10       29.94F
CENTRAL PARK   CLOUDY    67  58  72 E7        29.97F
$$

NYZ005>009-017-018-044>046-055-056-302000-
CENTRAL


CITY           SKY/WX    TMP DP  RH WIND       PRES   REMARKS
FULTON         SUNNY     76  60  57 N6        29.88F
SYRACUSE       PTSUNNY   77  62  59 NE9       29.87F
ROME           PTSUNNY   73  62  68 E10       29.91F
ELMIRA         PTSUNNY   76  57  51 SE5       29.86F
BINGHAMTON     MOSUNNY   70  61  73 E15       29.91S
MONTICELLO     MOSUNNY   70  55  60 SE10      29.95F
$$

NYZ026>034-041>043-302000-
NORTH


CITY           SKY/WX    TMP DP  RH WIND       PRES   REMARKS
WATERTOWN      MOSUNNY   71  56  58 N14       29.91S
FORT DRUM      NOT AVBL
MASSENA        MOSUNNY   59  52  77 N9        29.98S
SARANAC LAKE   CLOUDY    70  53  54 E9        29.94S
PLATTSBURGH    MOSUNNY   66  56  70 N7        29.95F
$$

NYZ001>004-010>016-019>021-302000-
WEST


CITY           SKY/WX    TMP DP  RH WIND       PRES   REMARKS
NIAGARA FALLS  PTSUNNY   71  59  65 NE8       29.88S
BUFFALO        PTSUNNY   73  55  53 S6        29.88F
DUNKIRK        CLOUDY    64  56  75 NW3       29.90S
JAMESTOWN      CLOUDY    63  54  72 W8        29.92S
WELLSVILLE     MOSUNNY   70  50  49 NW8       29.92F
ROCHESTER      MOSUNNY   69  59  70 N14       29.89S
PENN YAN       MOSUNNY   75  56  51 E7        29.88F
$$

             KEY
       WCI = WIND CHILL INDEX
       VSB = VISIBILITY
       HX  = HEAT INDEX
$$



USA.gov is the U.S. government's official web portal to all federal, state and local government web resources and services.